505P/Palomar (2026)

Japanese version
Home page
Updated on July 28, 2026

---------------------------------------------------------------------

* Profile

* Orbital Elements

Epoch 2025 May 5.0 TT = JDT 2460800.5                                           
T 2026 Jan. 17.76929 TT                                 Veres                   
q   2.8349756            (2000.0)            P               Q                  
n   0.11820561     Peri.  143.97574     -0.23253948     +0.95518691             
a   4.1119137      Node   111.94408     -0.93214058     -0.16514116             
e   0.3105459      Incl.   11.38813     -0.27755959     -0.24565495             
P   8.34                                                                        
From 78 observations 2001 May 23-2025 Mar. 26, mean residual 0".7.              

* Magnitudes Graph

        H = 15.5  G = 0.15

---------------------------------------------------------------------

The orbital elements are published on M.P.E.C. 2025-H87.
The magnitudes graphs are made with Comet for Windows.

---------------------------------------------------------------------

Copyright(C) Seiichi Yoshida (comet@aerith.net). All rights reserved.